timestamp,surface_pressure_avg,surface_temp_avg,battery_voltage,lat,long
2020-06-28 00:09:01+00:00,228.6997,12.85,12.89,47.84626,-54.09684
2020-06-28 00:19:01+00:00,225.8598,13.0,12.73,47.84626,-54.09684
2020-06-28 00:29:01+00:00,230.5514,13.0,12.73,47.84626,-54.09684
2020-06-28 00:39:01+00:00,237.4031,12.9,12.73,47.84626,-54.09684
2020-06-28 00:49:01+00:00,237.3581,12.8,12.73,47.84626,-54.09684
2020-06-28 00:59:01+00:00,236.0931,12.94,12.73,47.84626,-54.09684
2020-06-28 01:09:01+00:00,242.1248,12.99,12.73,47.84626,-54.09684
2020-06-28 01:19:01+00:00,251.738,12.8,12.73,47.84626,-54.09684
2020-06-28 01:29:01+00:00,251.8881,12.79,12.73,47.84626,-54.09684
2020-06-28 01:39:01+00:00,253.1381,12.89,12.73,47.84626,-54.09684
2020-06-28 01:49:01+00:00,262.9564,12.8,12.73,47.84626,-54.09684
2020-06-28 01:59:01+00:00,272.8948,12.5,12.73,47.84626,-54.09684
2020-06-28 02:09:01+00:00,271.8914,12.5,12.73,47.84626,-54.09684
2020-06-28 02:19:01+00:00,276.3314,12.38,12.73,47.84626,-54.09684
2020-06-28 02:29:01+00:00,289.1747,12.33,12.73,47.84626,-54.09684
2020-06-28 02:39:01+00:00,296.998,12.3,12.73,47.84626,-54.09684
2020-06-28 02:49:01+00:00,297.933,12.38,12.73,47.84626,-54.09684
2020-06-28 02:59:01+00:00,310.1114,12.35,12.73,47.84626,-54.09684
2020-06-28 03:09:01+00:00,322.1097,12.3,12.73,47.84626,-54.09684
2020-06-28 03:19:01+00:00,325.2014,12.36,12.73,47.84626,-54.09684
2020-06-28 03:29:01+00:00,323.6112,12.4,12.73,47.84626,-54.09684
2020-06-28 03:39:01+00:00,332.0363,12.4,12.73,47.84626,-54.09684
2020-06-28 03:49:01+00:00,340.0663,12.4,12.73,47.84626,-54.09684
2020-06-28 03:59:01+00:00,338.4796,12.4,12.73,47.84626,-54.09684
2020-06-28 04:09:01+00:00,338.4914,12.37,12.73,47.84626,-54.09684
2020-06-28 04:19:01+00:00,342.1646,12.39,12.73,47.84626,-54.09684
2020-06-28 04:29:01+00:00,344.0047,12.4,12.73,47.84626,-54.09684
2020-06-28 04:39:01+00:00,341.0513,12.32,12.73,47.84626,-54.09684
2020-06-28 04:49:01+00:00,339.5680000000001,12.3,12.73,47.84626,-54.09684
2020-06-28 04:59:01+00:00,342.1364,12.4,12.73,47.84626,-54.09684
2020-06-28 05:09:01+00:00,341.7164,12.4,12.73,47.84626,-54.09684
2020-06-28 05:19:01+00:00,340.1380000000001,12.4,12.65,47.84626,-54.09684
2020-06-28 05:29:01+00:00,339.8513,12.44,12.65,47.84626,-54.09684
2020-06-28 05:39:01+00:00,340.2746,12.41,12.65,47.84626,-54.09684
2020-06-28 05:49:01+00:00,340.398,12.45,12.65,47.84626,-54.09684
2020-06-28 05:59:01+00:00,340.7197,12.5,12.65,47.84626,-54.09684
2020-06-28 06:09:01+00:00,340.4396,12.5,12.65,47.84626,-54.09684
2020-06-28 06:19:01+00:00,338.1896,12.44,12.65,47.84626,-54.09684
2020-06-28 06:29:01+00:00,333.648,12.4,12.65,47.84626,-54.09684
2020-06-28 06:39:01+00:00,329.7078,12.5,12.65,47.84626,-54.09684
2020-06-28 06:49:01+00:00,323.4263,12.57,12.65,47.84626,-54.09684
2020-06-28 06:59:01+00:00,317.1296,12.5,12.65,47.84626,-54.09684
2020-06-28 07:09:01+00:00,313.9097,12.4,12.65,47.84626,-54.09684
2020-06-28 07:19:01+00:00,308.788,12.48,12.65,47.84626,-54.09684
2020-06-28 07:29:01+00:00,299.1847,12.6,12.65,47.84626,-54.09684
2020-06-28 07:39:01+00:00,292.0264,12.69,12.65,47.84626,-54.09684
2020-06-28 07:49:01+00:00,287.373,12.7,12.65,47.84626,-54.09684
2020-06-28 07:59:01+00:00,278.7714,12.69,12.65,47.84626,-54.09684
2020-06-28 08:09:01+00:00,269.1647,12.79,12.65,47.84626,-54.09684
2020-06-28 08:19:01+00:00,262.4964,12.89,12.65,47.84626,-54.09684
2020-06-28 08:29:01+00:00,251.5313,12.98,12.65,47.84626,-54.09684
2020-06-28 08:39:01+00:00,238.3381,13.25,12.65,47.84626,-54.09684
2020-06-28 08:49:01+00:00,235.5031,13.3,12.65,47.84626,-54.09684
2020-06-28 08:59:01+00:00,234.4398,13.3,12.65,47.84626,-54.09684
2020-06-28 09:09:01+00:00,224.9464,13.45,12.65,47.84626,-54.09684
2020-06-28 09:19:01+00:00,216.9198,13.5,12.65,47.84626,-54.09684
2020-06-28 09:29:01+00:00,215.5681,13.5,12.65,47.84626,-54.09684
2020-06-28 09:39:01+00:00,211.8665,13.55,12.65,47.84626,-54.09684
2020-06-28 09:49:01+00:00,206.9314,13.5,12.65,47.84626,-54.09684
2020-06-28 09:59:01+00:00,205.4231,13.4,12.65,47.84626,-54.09684
2020-06-28 10:09:01+00:00,205.1698,13.4,12.65,47.84626,-54.09684
2020-06-28 10:19:01+00:00,204.2864,13.4,12.73,47.84626,-54.09684
2020-06-28 10:29:01+00:00,204.4164,13.39,12.73,47.84626,-54.09684
2020-06-28 10:39:01+00:00,207.3431,13.3,12.73,47.84626,-54.09684
2020-06-28 10:49:01+00:00,206.8031,13.3,12.73,47.84626,-54.09684
2020-06-28 10:59:01+00:00,204.0847,13.3,12.73,47.84626,-54.09684
2020-06-28 11:09:01+00:00,204.5898,13.3,12.73,47.84626,-54.09684
2020-06-28 11:19:01+00:00,207.5132,13.2,12.81,47.84626,-54.09684
2020-06-28 11:29:01+00:00,207.3197,13.1,12.81,47.84626,-54.09684
2020-06-28 11:39:01+00:00,207.9298,13.0,12.81,47.84626,-54.09684
2020-06-28 11:49:01+00:00,208.9515,13.0,12.81,47.84626,-54.09684
2020-06-28 11:59:01+00:00,207.8815,12.88,12.81,47.84626,-54.09684
2020-06-28 12:09:01+00:00,207.6381,12.87,12.81,47.84626,-54.09684
2020-06-28 12:19:01+00:00,211.1748,12.87,13.13,47.84626,-54.09684
2020-06-28 12:29:01+00:00,212.7997,12.8,13.13,47.84626,-54.09684
2020-06-28 12:39:01+00:00,211.4465,12.86,13.13,47.84626,-54.09684
2020-06-28 12:49:01+00:00,211.8848,12.88,13.13,47.84626,-54.09684
2020-06-28 12:59:01+00:00,213.6581,12.85,13.13,47.84626,-54.09684
2020-06-28 13:09:01+00:00,216.3698,12.84,13.13,47.84626,-54.09684
2020-06-28 13:19:01+00:00,220.5898,12.8,13.53,47.84626,-54.09684
2020-06-28 13:29:01+00:00,222.3714,12.8,13.53,47.84626,-54.09684
2020-06-28 13:39:01+00:00,224.3047,12.8,13.53,47.84626,-54.09684
2020-06-28 13:49:01+00:00,229.0481,12.8,13.53,47.84626,-54.09684
2020-06-28 13:59:01+00:00,236.2597,12.8,13.53,47.84626,-54.09684
2020-06-28 14:09:01+00:00,242.1364,12.8,13.53,47.84626,-54.09684
2020-06-28 14:19:01+00:00,246.7598,12.8,14.32,47.84626,-54.09684
2020-06-28 14:29:01+00:00,253.5881,12.7,14.32,47.84626,-54.09684
2020-06-28 14:39:01+00:00,261.4247,12.6,14.32,47.84626,-54.09684
2020-06-28 14:49:01+00:00,266.538,12.5,14.32,47.84626,-54.09684
2020-06-28 14:59:01+00:00,273.4564,12.46,14.32,47.84626,-54.09684
2020-06-28 15:09:01+00:00,283.018,12.4,14.32,47.84626,-54.09684
2020-06-28 15:19:01+00:00,290.6947,12.4,14.08,47.84626,-54.09684
2020-06-28 15:29:01+00:00,295.8981,12.4,14.08,47.84626,-54.09684
2020-06-28 15:39:01+00:00,302.5697,12.39,14.08,47.84626,-54.09684
2020-06-28 15:49:01+00:00,306.9363,12.39,14.08,47.84626,-54.09684
2020-06-28 15:59:01+00:00,308.6246,12.44,14.08,47.84626,-54.09684
2020-06-28 16:09:01+00:00,309.753,12.49,14.08,47.84626,-54.09684
2020-06-28 16:19:01+00:00,317.998,12.5,14.16,47.84626,-54.09684
2020-06-28 16:29:01+00:00,323.4397,12.49,14.16,47.84626,-54.09684
2020-06-28 16:39:01+00:00,324.943,12.47,14.16,47.84626,-54.09684
2020-06-28 16:49:01+00:00,325.4947,12.49,14.16,47.84626,-54.09684
2020-06-28 16:59:01+00:00,328.6797,12.5,14.16,47.84626,-54.09684
2020-06-28 17:09:01+00:00,328.6230000000001,12.5,14.16,47.84626,-54.09684
2020-06-28 17:19:01+00:00,329.4946,12.58,14.08,47.84626,-54.09684
2020-06-28 17:29:01+00:00,333.5130000000001,12.58,14.08,47.84626,-54.09684
2020-06-28 17:39:01+00:00,333.1013,12.59,14.08,47.84626,-54.09684
2020-06-28 17:49:01+00:00,329.7546,12.64,14.08,47.84626,-54.09684
2020-06-28 17:59:01+00:00,328.653,12.69,14.08,47.84626,-54.09684
2020-06-28 18:09:01+00:00,330.4579,12.7,14.08,47.84626,-54.09684
2020-06-28 18:19:01+00:00,326.3813,12.74,14.0,47.84626,-54.09684
2020-06-28 18:29:01+00:00,323.0179,12.8,14.0,47.84626,-54.09684
2020-06-28 18:39:01+00:00,324.6979,12.85,14.0,47.84626,-54.09684
2020-06-28 18:49:01+00:00,322.5264,12.87,14.0,47.84626,-54.09684
2020-06-28 18:59:01+00:00,315.3747,12.92,14.0,47.84626,-54.09684
2020-06-28 19:09:01+00:00,310.3713,13.0,14.0,47.84626,-54.09684
2020-06-28 19:19:01+00:00,310.3046,13.02,14.0,47.84626,-54.09684
2020-06-28 19:29:01+00:00,305.3047,13.1,14.0,47.84626,-54.09684
2020-06-28 19:39:01+00:00,299.6914,13.14,14.0,47.84626,-54.09684
2020-06-28 19:49:01+00:00,292.828,13.1,14.0,47.84626,-54.09684
2020-06-28 19:59:01+00:00,285.4697,13.14,14.0,47.84626,-54.09684
2020-06-28 20:09:01+00:00,276.3514,13.2,14.0,47.84626,-54.09684
2020-06-28 20:19:01+00:00,270.6897,13.2,13.92,47.84626,-54.09684
2020-06-28 20:29:01+00:00,263.2848,13.1,13.92,47.84626,-54.09684
2020-06-28 20:39:01+00:00,253.4231,13.07,13.92,47.84626,-54.09684
2020-06-28 20:49:01+00:00,246.4531,13.1,13.92,47.84626,-54.09684
2020-06-28 20:59:01+00:00,242.088,13.04,13.92,47.84626,-54.09684
2020-06-28 21:09:01+00:00,235.3481,12.99,13.92,47.84626,-54.09684
2020-06-28 21:19:01+00:00,226.5164,12.87,13.68,47.84626,-54.09684
2020-06-28 21:29:01+00:00,222.9115,12.8,13.68,47.84626,-54.09684
2020-06-28 21:39:01+00:00,219.5014,12.8,13.68,47.84626,-54.09684
2020-06-28 21:49:01+00:00,211.7764,12.7,13.68,47.84626,-54.09684
2020-06-28 21:59:01+00:00,208.5498,12.7,13.68,47.84626,-54.09684
2020-06-28 22:09:01+00:00,211.4414,12.7,13.68,47.84626,-54.09684
2020-06-28 22:19:01+00:00,210.0131,12.7,13.44,47.84626,-54.09684
2020-06-28 22:29:01+00:00,205.5681,12.7,13.44,47.84626,-54.09684
2020-06-28 22:39:01+00:00,205.6981,12.7,13.44,47.84626,-54.09684
2020-06-28 22:49:01+00:00,209.0264,12.68,13.44,47.84626,-54.09684
2020-06-28 22:59:01+00:00,206.9198,12.7,13.44,47.84626,-54.09684
2020-06-28 23:09:01+00:00,205.3214,12.71,13.44,47.84626,-54.09684
2020-06-28 23:19:01+00:00,207.5481,12.8,13.05,47.84626,-54.09684
2020-06-28 23:29:01+00:00,209.4998,12.8,13.05,47.84626,-54.09684
2020-06-28 23:39:01+00:00,209.5081,12.89,13.05,47.84626,-54.09684
2020-06-28 23:49:01+00:00,211.3981,12.9,13.05,47.84626,-54.09684
2020-06-28 23:59:01+00:00,212.5447,12.93,13.05,47.84626,-54.09684
